Welcome to the New NWS' Forecast!
Most changes are behind the scenes, but click here for differences you might notice.
Latest weather observations around

Montgomery, Dannelly Field (KMGM)

Using English Units (Switch to International System of Units)
Date/ Time (CST) Wind (mph) Vis. (mi) Weather Sky Cond. Temp (°F) Rel. Humidity Wind Chill (°F) Heat Index (°F) Pressure Precip. (in)
Air Dwpt 6 hour Altimeter (inHg) Sea level (inHg) 1 hr 3 hr 6 hr
Max Min
Jan 20 09:53 Calm 10 Cloudy OVC049 46 27     47%     30.36 30.36      
Jan 20 08:53 Calm 10 Cloudy OVC049 42 27     55%     30.35 30.35      
Jan 20 07:53 NNW 5 10 Cloudy OVC046 38 27     64% 34   30.32 30.32      
Jan 20 06:53 NNW 7 10 Cloudy OVC046 37 26     64% 32   30.3 30.3      
Jan 20 05:53 Calm 10 Cloudy OVC045 36 26     67%     30.29 30.29      
Jan 20 04:53 Calm 10 Cloudy OVC045 36 27     70%     30.29 30.29      
Jan 20 03:53 Calm 10 Cloudy OVC044 35 26     69%     30.29 30.29      
Jan 20 02:53 SSE 5 10 Cloudy OVC046 32 25     75% 27   30.29 30.29      
Jan 20 01:53 Calm 10 Partly Cloudy SCT045 30 22     71%     30.28 30.28      
Jan 20 00:53 Calm 10 Clear CLR 30 22     71%     30.28 30.28      
Jan 19 23:53 Calm 10 Clear CLR 31 22     69%     30.29 30.29      
Jan 19 22:53 ENE 3 10 Clear CLR 31 21     66% 28   30.28 30.29      
Jan 19 21:53 Calm 10 Clear CLR 33 19     56%     30.29 30.29      
Jan 19 20:53 Calm 10 Clear CLR 34 21     59%     30.29 30.29      
Jan 19 19:53 Calm 10 Clear CLR 35 19     52%     30.29 30.29      
Jan 19 18:53 SW 5 10 Clear CLR 39 18     42% 36   30.29 30.29      
Jan 19 17:53 SW 3 10 Clear CLR 45 13     27% 44   30.27 30.28      
Jan 19 16:53 Calm 10 Clear CLR 49 12     22%     30.27 30.27      
Jan 19 15:53 WNW 5 10 Clear CLR 50 12     21% 48   30.28 30.28      
Jan 19 14:53 W 7 10 Clear CLR 51 13     21%     30.29 30.29      
Jan 19 13:53 SW 6 10 Clear CLR 50 11     20% 48   30.29 30.29      
Jan 19 12:53 3 10 Clear CLR 49 14     24% 48   30.32 30.32      
Jan 19 11:53 3 10 Clear CLR 46 16     30% 45   30.36 30.37      
Jan 19 10:53 W 5 10 Clear CLR 42 18     37% 39   30.4 30.4      
Jan 19 08:53 Calm 10 Clear CLR 32 20     61%     30.41 30.41      
Jan 19 07:53 Calm 10 Clear CLR 25 19     78%     30.39 30.4      
Jan 19 06:53 SSW 6 10 Clear CLR 18 14     84% 10   30.38 30.39      
Jan 19 05:53 Calm 10 Clear CLR 19 14     80%     30.37 30.37      
Jan 19 04:53 Calm 10 Clear CLR 21 15     77%     30.37 30.37      
Jan 19 03:53 SSW 5 10 Clear CLR 19 14     80% 12   30.38 30.39      
Jan 19 02:53 W 3 10 Clear CLR 21 15     77% 16   30.38 30.39      
Jan 19 01:53 W 5 10 Clear CLR 21 15     77% 15   30.4 30.4      
Jan 19 00:53 Calm 10 Clear CLR 24 16     71%     30.38 30.39      
Jan 18 23:53 SSW 3 10 Clear CLR 22 16     78% 17   30.39 30.4      
Jan 18 22:53 SW 3 10 Clear CLR 24 16     71% 20   30.4 30.41      
Jan 18 21:53 SW 6 10 Clear CLR 25 16     68% 18   30.41 30.41      
Jan 18 20:53 Calm 10 Clear CLR 29 15     56%     30.4 30.4      
Jan 18 19:53 WSW 7 10 Clear CLR 28 16     60% 21   30.41 30.42      
Jan 18 18:53 Calm 10 Clear CLR 34 12     40%     30.4 30.4      
Jan 18 17:53 WNW 5 10 Clear CLR 37 12     35% 33   30.41 30.41      
Jan 18 16:53 W 7 10 Clear CLR 39 14     36% 34   30.4 30.41      
Jan 18 15:53 WNW 8 10 Clear CLR 43 15     32% 38   30.42 30.42      
Jan 18 14:53 W 6 10 Clear CLR 42 14     32% 38   30.43 30.43      
Jan 18 13:53 NW 7 10 Clear CLR 40 14     34% 35   30.44 30.45      
Jan 18 12:53 W 7 10 Clear CLR 37 14     38% 32   30.46 30.46      
Jan 18 11:53 SW 5 10 Clear CLR 33 14     45% 29   30.51 30.51      
Jan 18 08:53 N 7 10 Clear CLR 24 10     55% 16   30.54 30.55      
Jan 18 07:53 NNW 6 10 Clear CLR 20 9     62% 12   30.52 30.53      
Jan 18 06:53 Calm 10 Clear CLR 13 8     81%     30.53 30.53      
Jan 18 05:53 Calm 10 Clear CLR 13 6     74%     30.52 30.53      
Jan 18 04:53 W 5 10 Clear CLR 17 8     67% 10   30.52 30.53      
Jan 18 03:53 NNW 3 10 Clear CLR 17 7     64% 12   30.52 30.53      
Jan 18 02:53 NW 6 10 Clear CLR 17 7     64% 9   30.53 30.54      
Jan 18 01:53 NW 6 10 Clear CLR 19 8     62% 11   30.53 30.53      
Jan 17 23:53 N 6 10 Clear CLR 22 8     55% 14   30.54 30.55      
Jan 17 22:53 NNW 11 10 Clear CLR 23 9     54% 12   30.55 30.56      
Jan 17 21:53 NW 13 10 Clear CLR 24 8     50% 12   30.57 30.58      
Jan 17 20:53 WNW 10 10 Clear CLR 23 8     52% 12   30.56 30.57      
Jan 17 19:53 NW 11 10 Clear CLR 25 8     48% 14   30.54 30.55      
Jan 17 18:53 NNW 13 10 Clear CLR 27 8     44% 16   30.53 30.53      
Jan 17 17:53 NW 7 10 Clear CLR 27 8     44% 19   30.53 30.54      
Jan 17 16:53 NW 13 10 Clear CLR 28 8     42% 17   30.53 30.53      
Jan 17 15:53 NNW 15 10 Clear CLR 29 8     41% 18   30.52 30.53      
Jan 17 14:53 NNW 15 10 Clear CLR 29 10     45% 18   30.52 30.53      
Jan 17 13:53 NNW 15 10 Clear CLR 27 9     46% 15   30.51 30.52      
Jan 17 12:53 NNW 14 10 Clear CLR 25 7     46% 13   30.54 30.54      
Jan 17 11:53 NW 14 10 Clear CLR 22 6     50% 9   30.57 30.57      
Jun 12 08:37 ESE 8 10 Mostly Clear FEW015 81 70     69%   84 30.16        
Jun 11 20:53 ESE 5 10 Clear CLR 79 71     77%   82 30.1 30.09      
Jun 11 16:53 SSE 9 10 Clear CLR 84 68     59%   87 30.07 30.06      
Jun 11 10:53 SE 7 10 Mostly Clear FEW028 86 68     55%   89 30.14 30.13      
Jun 11 10:10 ESE 7 10 Partly Cloudy SCT023 85 70     61%   89 30.15        
Jun 11 09:53 SE 8 10 Mostly Cloudy BKN023 84 70     63%   88 30.15 30.14      
Jun 09 16:53 S 5 10 Clear CLR 87 56     35%   86 29.92 29.91      
Jun 09 15:53 5 10 Mostly Clear FEW060 86 56     36%   85 29.93 29.92      
Jun 08 06:53 Calm 10 Clear CLR 67 58     73%     29.89 29.88      
Jun 07 10:53 NNE 10 10 Clear CLR 80 66     62%   82 29.77 29.76      
Jun 06 13:58 N 9 2 Heavy Rain FEW027 BKN034 OVC060 75 70     84%   76 29.73   0    
Jun 06 13:43 N 10 1.25 Heavy Rain FEW006 BKN022 OVC040 74 69     85%   75 29.74   0    
Jun 06 12:53 SE 11 10 Mostly Cloudy FEW021 SCT033 BKN042 80 70     71%   83 29.75 29.74      
Jun 06 09:53 NE 9 10 Mostly Cloudy BKN007 79 71     77%   82 29.76 29.75      
Jun 06 07:53 Calm 10 Mostly Clear FEW004 74 69     85%   75 29.78 29.77      
Notice The following observation data may not be complete
Jun 05 21:03   6 Rain FEW006 BKN023 OVC110          %         0    
Jun 05 19:28 N 3 10 Mostly Cloudy SCT027 BKN065 75 68     79%   76 29.79